GW1546 Weather Reports


Display with metric or nautical units.
time (UTC)temp
F
wind
direction
speed
MPH
gust
MPH
rain 1hr
in
rain 24hr
in
rain mn
in
humidity
%
barometer
mb
20260508121537 40 65 2.0 4.0 0.00 0.00 0.00 98 990.1
20260508120920 40 26 0.0 2.0 0.00 0.00 0.00 98 990.5
20260508115710 39 87 0.0 1.0 0.00 0.00 0.00 99 990.5
20260508115148 39 108 1.0 2.0 0.00 0.00 0.00 99 990.1
20260508114519 39 84 1.0 3.0 0.00 0.00 0.00 99 990.1
20260508113930 38 116 1.0 2.0 0.00 0.00 0.00 99 990.1
20260508113316 38 96 1.0 1.0 0.00 0.00 0.00 99 990.1
20260508112719 38 116 0.0 2.0 0.00 0.00 0.00 99 990.1
20260508112143 38 101 0.0 1.0 0.00 0.00 0.00 99 989.8
20260508111542 38 116 1.0 1.0 0.00 0.00 0.00 99 989.8
20260508110922 38 118 0.0 1.0 0.00 0.00 0.00 99 990.1
20260508110326 39 143 1.0 2.0 0.00 0.00 0.00 99 989.8
20260508105142 38 101 1.0 3.0 0.00 0.00 0.00 99 989.5
20260508103936 38 103 1.0 2.0 0.00 0.00 0.00 99 989.5
20260508103338 38 241 0.0 1.0 0.00 0.00 0.00 99 989.5
20260508102715 38 168 1.0 2.0 0.00 0.00 0.00 99 989.8
20260508102115 38 135 0.0 2.0 0.00 0.00 0.00 99 989.8
20260508101512 38 162 0.0 1.0 0.00 0.00 0.00 99 989.5
20260508100938 38 90 1.0 1.0 0.00 0.00 0.00 99 989.8
20260508100331 38 164 0.0 1.0 0.00 0.00 0.00 99 989.5
20260508095748 39 113 1.0 2.0 0.00 0.00 0.00 99 989.5
20260508095130 38 186 2.0 3.0 0.00 0.00 0.00 99 989.5
20260508094522 38 93 0.0 1.0 0.00 0.00 0.00 99 989.5
20260508093943 38 234 0.0 1.0 0.00 0.00 0.00 99 989.5
20260508092722 38 192 1.0 1.0 0.00 0.00 0.00 99 989.1
20260508092142 37 100 0.0 1.0 0.00 0.00 0.00 99 989.5
20260508091528 38 207 0.0 3.0 0.00 0.00 0.00 99 989.5
20260508090932 38 197 1.0 2.0 0.00 0.00 0.00 99 989.1
20260508085139 38 217 1.0 2.0 0.00 0.00 0.00 99 989.1
20260508084547 39 148 0.0 1.0 0.00 0.00 0.00 99 989.1
20260508083912 38 168 0.0 1.0 0.00 0.00 0.00 99 989.1
20260508083313 38 193 1.0 2.0 0.00 0.00 0.00 99 989.1
20260508082735 38 213 0.0 2.0 0.00 0.00 0.00 99 988.8
20260508082150 38 162 2.0 2.0 0.00 0.00 0.00 99 988.8
20260508081537 38 200 1.0 2.0 0.00 0.00 0.00 99 989.1
20260508080328 39 184 1.0 2.0 0.00 0.00 0.00 99 989.1
20260508075731 39 196 0.0 2.0 0.00 0.00 0.00 99 988.8
20260508075120 40 193 1.0 1.0 0.00 0.00 0.00 99 988.8
20260508074529 40 207 1.0 2.0 0.00 0.00 0.00 99 988.8
20260508073327 39 191 1.0 2.0 0.00 0.00 0.00 99 988.8
20260508072733 39 220 1.0 3.0 0.00 0.00 0.00 99 988.4
20260508072115 39 209 2.0 2.0 0.00 0.00 0.00 99 988.4
20260508071537 38 169 3.0 3.0 0.00 0.00 0.00 99 988.4
20260508070950 39 185 2.0 3.0 0.00 0.00 0.00 99 988.4
20260508070338 39 168 1.0 2.0 0.00 0.00 0.00 99 988.8
20260508065738 39 253 0.0 2.0 0.00 0.00 0.00 99 988.4
20260508065133 39 229 1.0 2.0 0.00 0.00 0.00 99 988.4
20260508064520 39 216 1.0 2.0 0.00 0.00 0.00 99 988.8
20260508063925 39 181 2.0 3.0 0.00 0.00 0.00 99 988.8
20260508063318 39 208 2.0 3.0 0.00 0.00 0.00 99 988.8
20260508062742 39 200 1.0 2.0 0.00 0.00 0.00 99 988.8
20260508062146 39 188 1.0 2.0 0.00 0.00 0.00 99 988.8
20260508061530 39 220 0.0 2.0 0.00 0.00 0.00 99 988.8
20260508060909 39 189 1.0 1.0 0.00 0.00 0.00 99 988.8
20260508060341 40 170 2.0 2.0 0.00 0.00 0.00 99 988.4
20260508055751 40 200 1.0 1.0 0.00 0.00 0.00 99 989.1
20260508055141 40 206 1.0 1.0 0.00 0.00 0.00 99 989.1
20260508054544 40 218 0.0 1.0 0.00 0.00 0.00 99 988.8
20260508052737 40 218 0.0 1.0 0.00 0.00 0.00 99 988.8
20260508052132 40 208 0.0 1.0 0.00 0.00 0.00 99 988.8
20260508051526 40 226 0.0 1.0 0.00 0.00 0.00 99 988.4
20260508050945 40 248 0.0 1.0 0.00 0.00 0.00 99 988.8
20260508050309 41 219 0.0 1.0 0.00 0.00 0.00 99 988.4
20260508045724 41 201 0.0 1.0 0.00 0.00 0.00 99 988.4
20260508045128 41 208 0.0 1.0 0.00 0.00 0.00 99 988.8
20260508044542 41 209 0.0 0.0 0.00 0.00 0.00 99 988.4
20260508043936 41 207 0.0 0.0 0.00 0.00 0.00 99 988.4
20260508043347 41 207 0.0 0.0 0.00 0.00 0.00 99 988.4
20260508042723 41 207 0.0 0.0 0.00 0.00 0.00 99 988.4
20260508042141 41 207 1.0 1.0 0.00 0.00 0.00 99 988.4
20260508041532 42 207 0.0 1.0 0.00 0.00 0.00 99 988.8
20260508040318 42 208 0.0 1.0 0.00 0.00 0.00 99 988.4
20260508035120 42 208 0.0 0.0 0.00 0.00 0.01 99 988.4
20260508034526 42 209 0.0 0.0 0.00 0.00 0.01 99 988.1
20260508033916 42 209 0.0 0.0 0.00 0.00 0.01 99 988.4
20260508033321 43 209 0.0 0.0 0.00 0.00 0.01 99 988.1
20260508032734 43 209 0.0 0.0 0.00 0.00 0.01 99 988.1
20260508032147 43 210 0.0 0.0 0.00 0.00 0.01 99 988.1
20260508031526 43 210 0.0 0.0 0.00 0.00 0.01 99 988.1
20260508030931 44 210 0.0 0.0 0.00 0.00 0.01 99 988.1
20260508030311 44 210 0.0 0.0 0.00 0.00 0.01 99 987.8
20260508025719 44 210 0.0 0.0 0.00 0.00 0.01 98 987.8
20260508025114 44 211 0.0 1.0 0.00 0.00 0.01 98 987.8
20260508024525 44 226 0.0 0.0 0.00 0.00 0.01 98 987.1
20260508023946 44 232 0.0 0.0 0.00 0.00 0.01 98 987.4
20260508023341 45 232 0.0 0.0 0.00 0.00 0.01 98 987.4
20260508022723 45 232 0.0 0.0 0.00 0.00 0.01 98 987.4
20260508021515 46 232 0.0 0.0 0.00 0.00 0.01 97 987.1
20260508020945 46 232 0.0 0.0 0.00 0.00 0.01 97 987.1
20260508020349 46 193 0.0 0.0 0.00 0.00 0.01 97 987.1
20260508015738 46 193 0.0 0.0 0.00 0.00 0.01 96 986.7
20260508015145 46 193 0.0 0.0 0.00 0.00 0.01 96 986.7
20260508014517 47 193 0.0 0.0 0.00 0.00 0.01 96 986.4
20260508012725 48 192 0.0 1.0 0.00 0.00 0.01 94 986.4
20260508011528 48 193 0.0 1.0 0.00 0.00 0.01 93 986.1
20260508010935 49 193 0.0 0.0 0.00 0.00 0.01 93 986.1
20260508010349 49 186 0.0 1.0 0.00 0.00 0.01 92 985.7
20260508005736 50 193 0.0 1.0 0.00 0.00 0.01 91 985.7
20260508003908 51 193 0.0 1.0 0.00 0.00 0.01 88 985.7
20260508003340 52 241 0.0 1.0 0.00 0.00 0.01 87 985.7
20260508002734 52 54 0.0 2.0 0.00 0.00 0.01 86 985.4
20260508002110 53 101 0.0 1.0 0.00 0.00 0.01 85 985.4
20260508001532 53 79 0.0 1.0 0.00 0.00 0.01 84 985.4
20260508000949 53 88 1.0 1.0 0.00 0.00 0.01 84 985.4
20260508000335 54 41 0.0 1.0 0.00 0.00 0.01 83 985.1
20260507235747 54 203 1.0 1.0 0.00 0.00 0.01 81 985.1
20260507235119 55 280 0.0 2.0 0.00 0.00 0.01 77 985.1
20260507234551 56 233 1.0 3.0 0.00 0.00 0.01 75 984.7
20260507233938 56 249 1.0 2.0 0.00 0.00 0.01 75 984.7
20260507233347 56 211 0.0 1.0 0.00 0.00 0.01 73 984.7
20260507231535 57 226 2.0 3.0 0.00 0.00 0.01 72 984.4
20260507225744 58 226 1.0 2.0 0.00 0.00 0.01 70 984.4
20260507225120 58 292 1.0 1.0 0.00 0.00 0.01 70 984.7
20260507224527 58 252 1.0 3.0 0.00 0.00 0.01 67 984.4
20260507223918 58 241 0.0 2.0 0.00 0.00 0.01 68 984.4
20260507223338 58 265 0.0 1.0 0.00 0.00 0.01 68 984.7
20260507222719 58 241 1.0 2.0 0.00 0.00 0.01 69 984.4
20260507221516 60 220 1.0 4.0 0.00 0.00 0.01 59 984.4
20260507220312 62 243 3.0 6.0 0.00 0.00 0.01 57 984.0
20260507215738 62 282 1.0 3.0 0.00 0.00 0.01 55 984.4
20260507215144 62 230 1.0 4.0 0.00 0.00 0.01 51 984.0
20260507213944 64 252 3.0 10.0 0.00 0.00 0.01 49 983.7
20260507212737 61 229 2.0 2.0 0.00 0.00 0.01 63 984.0
20260507211532 61 239 0.0 1.0 0.00 0.00 0.01 61 984.0
20260507210928 62 212 1.0 3.0 0.00 0.00 0.01 53 983.7
20260507210344 62 215 2.0 3.0 0.00 0.00 0.01 54 983.7
20260507204547 66 219 5.0 6.0 0.00 0.00 0.01 49 983.7
20260507202737 61 268 1.0 3.0 0.00 0.00 0.01 55 984.0
20260507202152 62 342 4.0 8.0 0.00 0.00 0.01 55 983.7
20260507201538 62 261 3.0 6.0 0.00 0.00 0.01 54 983.7
20260507200938 62 206 1.0 6.0 0.00 0.00 0.01 55 983.7
20260507195752 62 247 4.0 8.0 0.00 0.00 0.01 56 983.7
20260507195151 62 242 1.0 4.0 0.00 0.00 0.01 54 984.0
20260507194514 62 307 2.0 3.0 0.00 0.00 0.01 58 984.0
20260507193951 61 269 2.0 4.0 0.00 0.00 0.01 55 984.0
20260507192732 63 214 1.0 4.0 0.00 0.00 0.01 54 984.0
20260507192146 63 266 6.0 7.0 0.00 0.00 0.01 53 984.0
20260507191535 63 269 5.0 7.0 0.00 0.00 0.01 52 984.0
20260507190936 63 204 3.0 7.0 0.00 0.00 0.01 54 984.4
20260507185724 62 251 2.0 3.0 0.00 0.00 0.01 55 984.4
20260507185150 62 243 1.0 2.0 0.00 0.00 0.01 57 984.7
20260507184549 62 312 0.0 2.0 0.00 0.00 0.01 58 984.7
20260507183952 62 179 2.0 4.0 0.00 0.00 0.01 54 984.7
20260507183308 61 270 4.0 7.0 0.00 0.00 0.01 56 984.7
20260507182714 60 104 1.0 1.0 0.00 0.00 0.01 58 984.7
20260507182150 60 273 4.0 6.0 0.00 0.00 0.01 60 984.7
20260507181510 60 280 2.0 4.0 0.00 0.00 0.01 59 984.7
20260507180928 60 203 1.0 3.0 0.00 0.00 0.01 57 985.1
20260507180324 61 274 1.0 3.0 0.00 0.00 0.01 58 985.1
20260507174520 59 170 2.0 4.0 0.00 0.00 0.01 60 985.1
20260507173945 59 278 2.0 6.0 0.00 0.00 0.01 61 985.4
20260507172732 61 322 4.0 6.0 0.00 0.00 0.01 58 985.1
20260507172129 61 103 1.0 2.0 0.00 0.00 0.01 62 985.1
20260507170911 58 282 2.0 3.0 0.00 0.00 0.01 62 985.7
20260507170321 58 228 1.0 1.0 0.00 0.00 0.01 61 985.7
20260507165750 58 241 3.0 4.0 0.00 0.00 0.01 62 985.7
20260507165135 58 335 2.0 3.0 0.00 0.00 0.01 62 985.7
20260507163923 59 328 1.0 3.0 0.00 0.00 0.01 61 985.7
20260507162722 58 356 1.0 4.0 0.00 0.00 0.01 64 985.7
20260507162152 58 307 3.0 4.0 0.00 0.00 0.01 64 985.7
20260507161555 60 240 3.0 6.0 0.00 0.00 0.01 62 985.7
20260507160923 59 265 2.0 3.0 0.00 0.00 0.01 62 985.7
20260507160346 58 186 4.0 6.0 0.00 0.00 0.01 63 985.7
20260507155731 58 284 1.0 2.0 0.00 0.00 0.01 64 985.7
20260507155123 58 257 1.0 6.0 0.00 0.00 0.01 65 985.7
20260507154519 58 276 3.0 4.0 0.00 0.00 0.01 63 985.7
20260507153911 58 265 1.0 3.0 0.00 0.00 0.01 62 985.7
20260507153316 58 275 1.0 1.0 0.00 0.00 0.01 65 985.7
20260507152750 57 308 1.0 3.0 0.00 0.00 0.01 66 985.7
20260507151534 57 275 2.0 4.0 0.00 0.00 0.01 67 986.1
20260507150347 56 257 1.0 2.0 0.00 0.00 0.01 67 986.1
20260507145715 58 317 1.0 2.0 0.00 0.00 0.01 68 986.1
20260507145111 57 279 0.0 1.0 0.00 0.00 0.01 70 986.4
20260507144515 57 316 1.0 2.0 0.00 0.00 0.01 73 986.4
20260507143939 56 292 1.0 6.0 0.00 0.00 0.01 72 986.1
20260507143320 56 283 1.0 2.0 0.00 0.00 0.01 78 986.1
20260507142123 55 108 0.0 0.0 0.00 0.00 0.01 77 986.1
20260507141517 55 286 2.0 3.0 0.00 0.00 0.01 77 986.4
20260507140926 55 310 2.0 3.0 0.00 0.00 0.01 79 986.1
20260507140342 55 310 0.0 1.0 0.00 0.00 0.01 84 986.4
20260507135143 54 314 1.0 1.0 0.00 0.00 0.01 87 986.4
20260507134519 54 311 0.0 1.0 0.00 0.00 0.01 90 986.4
20260507133319 53 92 1.0 1.0 0.00 0.00 0.01 91 986.4
20260507132743 53 340 1.0 2.0 0.00 0.00 0.01 91 986.7
20260507132122 53 334 1.0 1.0 0.00 0.00 0.01 92 986.7
20260507130911 52 295 0.0 1.0 0.00 0.00 0.01 97 986.7
20260507130311 52 275 1.0 1.0 0.00 0.00 0.01 97 986.7
20260507124550 52 298 0.0 1.0 0.00 0.00 0.01 99 986.7
20260507123943 51 296 0.0 0.0 0.00 0.00 0.01 99 986.7
20260507123343 50 266 0.0 1.0 0.00 0.00 0.01 99 986.7
20260507122748 50 99 0.0 0.0 0.00 0.00 0.01 99 986.7
20260507122127 51 299 0.0 0.0 0.00 0.00 0.01 99 986.7